| time (UTC) | temp C | wind direction | speed KPH | gust KPH | rain 1hr cm | rain 24hr cm | rain mn cm | humidity % | barometer mb |
| 20260502214043 | 32 | 97 | 4.8 | 6.4 | 0.00 | 0.00 | 0.00 | 35 | 1007.0 |
| 20260502213043 | 32 | 97 | 4.8 | 6.4 | 0.00 | 0.00 | 0.00 | 35 | 1007.0 |
| 20260502212042 | 32 | 97 | 4.8 | 6.4 | 0.00 | 0.00 | 0.00 | 35 | 1008.0 |
| 20260502211042 | 32 | 97 | 4.8 | 6.4 | 0.00 | 0.00 | 0.00 | 35 | 1008.0 |
| 20260502210042 | 32 | 97 | 4.8 | 6.4 | 0.00 | 0.00 | 0.00 | 35 | 1007.0 |
| 20260502205042 | 32 | 97 | 4.8 | 6.4 | 0.00 | 0.00 | 0.00 | 35 | 1007.0 |
| 20260502204041 | 32 | 97 | 4.8 | 6.4 | 0.00 | 0.00 | 0.00 | 35 | 1007.0 |
| 20260502203041 | 32 | 97 | 4.8 | 6.4 | 0.00 | 0.00 | 0.00 | 35 | 1007.0 |
| 20260502202040 | 32 | 97 | 4.8 | 6.4 | 0.00 | 0.00 | 0.00 | 35 | 1008.0 |
| 20260502201040 | 32 | 97 | 4.8 | 6.4 | 0.00 | 0.00 | 0.00 | 35 | 1008.0 |
| 20260502200040 | 32 | 97 | 4.8 | 6.4 | 0.00 | 0.00 | 0.00 | 35 | 1008.0 |
| 20260502195039 | 32 | 97 | 4.8 | 6.4 | 0.00 | 0.00 | 0.00 | 35 | 1008.0 |
| 20260502194039 | 31 | 97 | 4.8 | 6.4 | 0.00 | 0.00 | 0.00 | 36 | 1008.0 |
| 20260502193039 | 31 | 112 | 4.8 | 6.4 | 0.00 | 0.00 | 0.00 | 39 | 1009.0 |
| 20260502192038 | 31 | 112 | 4.8 | 6.4 | 0.00 | 0.00 | 0.00 | 39 | 1009.0 |
| 20260502191038 | 31 | 112 | 4.8 | 6.4 | 0.00 | 0.00 | 0.00 | 39 | 1009.0 |
| 20260502190038 | 31 | 112 | 4.8 | 6.4 | 0.00 | 0.00 | 0.00 | 38 | 1009.0 |
| 20260502185038 | 31 | 112 | 4.8 | 6.4 | 0.00 | 0.00 | 0.00 | 38 | 1009.0 |
| 20260502184037 | 31 | 112 | 4.8 | 6.4 | 0.00 | 0.00 | 0.00 | 38 | 1009.0 |
| 20260502183037 | 31 | 112 | 4.8 | 6.4 | 0.00 | 0.00 | 0.00 | 38 | 1009.0 |
| 20260502182036 | 30 | 116 | 6.4 | 6.4 | 0.00 | 0.00 | 0.00 | 41 | 1010.0 |
| 20260502181036 | 30 | 116 | 6.4 | 6.4 | 0.00 | 0.00 | 0.00 | 40 | 1010.0 |
| 20260502164033 | 30 | 116 | 4.8 | 6.4 | 0.00 | 0.00 | 0.00 | 47 | 1012.0 |
| 20260502163033 | 28 | 114 | 4.8 | 4.8 | 0.00 | 0.00 | 0.00 | 53 | 1013.0 |
| 20260502162032 | 28 | 114 | 4.8 | 4.8 | 0.00 | 0.00 | 0.00 | 53 | 1013.0 |
| 20260502161032 | 28 | 114 | 4.8 | 4.8 | 0.00 | 0.00 | 0.00 | 53 | 1013.0 |
| 20260502152030 | 27 | 99 | 1.6 | 3.2 | 0.00 | 0.00 | 0.00 | 58 | 1013.0 |
| 20260502151030 | 26 | 99 | 1.6 | 3.2 | 0.00 | 0.00 | 0.00 | 58 | 1013.0 |
| 20260502123023 | 22 | 109 | 1.6 | 1.6 | 0.00 | 0.00 | 0.00 | 75 | 1013.0 |
| 20260502122023 | 22 | 109 | 1.6 | 1.6 | 0.00 | 0.00 | 0.00 | 75 | 1013.0 |
| 20260502121022 | 22 | 109 | 1.6 | 1.6 | 0.00 | 0.00 | 0.00 | 75 | 1013.0 |
| 20260502115022 | 22 | 109 | 1.6 | 1.6 | 0.00 | 0.00 | 0.00 | 75 | 1013.0 |
| 20260502114022 | 22 | 109 | 1.6 | 1.6 | 0.00 | 0.00 | 0.00 | 75 | 1013.0 |
| 20260502113021 | 22 | 109 | 1.6 | 1.6 | 0.00 | 0.00 | 0.00 | 75 | 1012.0 |
| 20260502112021 | 22 | 109 | 1.6 | 1.6 | 0.00 | 0.00 | 0.00 | 75 | 1012.0 |
| 20260502111021 | 22 | 109 | 1.6 | 1.6 | 0.00 | 0.00 | 0.00 | 75 | 1012.0 |
| 20260502110021 | 22 | 109 | 1.6 | 1.6 | 0.00 | 0.00 | 0.00 | 75 | 1012.0 |
| 20260502105020 | 22 | 109 | 1.6 | 1.6 | 0.00 | 0.00 | 0.00 | 75 | 1012.0 |
| 20260502104020 | 22 | 109 | 1.6 | 1.6 | 0.00 | 0.00 | 0.00 | 75 | 1012.0 |
| 20260502103020 | 22 | 109 | 1.6 | 1.6 | 0.00 | 0.00 | 0.00 | 75 | 1012.0 |
| 20260502102019 | 22 | 109 | 1.6 | 1.6 | 0.00 | 0.00 | 0.00 | 75 | 1012.0 |
| 20260502101019 | 22 | 109 | 1.6 | 1.6 | 0.00 | 0.00 | 0.00 | 75 | 1012.0 |
| 20260502091018 | 25 | 87 | 1.6 | 1.6 | 0.00 | 0.00 | 0.00 | 63 | 1012.0 |
| 20260502071014 | 25 | 87 | 1.6 | 1.6 | 0.00 | 0.00 | 0.00 | 63 | 1012.0 |
| 20260502070014 | 25 | 87 | 1.6 | 1.6 | 0.00 | 0.00 | 0.00 | 63 | 1012.0 |
| 20260502065014 | 25 | 87 | 1.6 | 1.6 | 0.00 | 0.00 | 0.00 | 63 | 1012.0 |
| 20260502064013 | 25 | 87 | 1.6 | 1.6 | 0.00 | 0.00 | 0.00 | 63 | 1012.0 |
| 20260502063013 | 25 | 87 | 1.6 | 1.6 | 0.00 | 0.00 | 0.00 | 63 | 1012.0 |
| 20260502062013 | 25 | 87 | 1.6 | 1.6 | 0.00 | 0.00 | 0.00 | 63 | 1012.0 |
| 20260502061012 | 25 | 87 | 1.6 | 1.6 | 0.00 | 0.00 | 0.00 | 63 | 1012.0 |
| 20260502060012 | 25 | 87 | 1.6 | 1.6 | 0.00 | 0.00 | 0.00 | 63 | 1012.0 |
| 20260502055012 | 25 | 87 | 3.2 | 3.2 | 0.00 | 0.00 | 0.00 | 63 | 1012.0 |
| 20260502054012 | 27 | 101 | 6.4 | 12.9 | 0.00 | 0.00 | 0.00 | 49 | 1012.0 |
| 20260502053011 | 27 | 101 | 6.4 | 12.9 | 0.00 | 0.00 | 0.00 | 49 | 1012.0 |
| 20260502052011 | 27 | 101 | 6.4 | 12.9 | 0.00 | 0.00 | 0.00 | 49 | 1012.0 |
| 20260502051011 | 27 | 101 | 6.4 | 12.9 | 0.00 | 0.00 | 0.00 | 49 | 1012.0 |
| 20260502050011 | 27 | 101 | 6.4 | 12.9 | 0.00 | 0.00 | 0.00 | 49 | 1012.0 |
| 20260502045010 | 27 | 101 | 6.4 | 12.9 | 0.00 | 0.00 | 0.00 | 49 | 1012.0 |
| 20260502044010 | 27 | 101 | 6.4 | 12.9 | 0.00 | 0.00 | 0.00 | 49 | 1012.0 |
| 20260502043010 | 27 | 101 | 6.4 | 12.9 | 0.00 | 0.00 | 0.00 | 49 | 1012.0 |
| 20260502042009 | 27 | 101 | 6.4 | 12.9 | 0.00 | 0.00 | 0.00 | 49 | 1012.0 |
| 20260502041009 | 27 | 101 | 6.4 | 12.9 | 0.00 | 0.00 | 0.00 | 49 | 1012.0 |
| 20260502040009 | 27 | 101 | 6.4 | 12.9 | 0.00 | 0.00 | 0.00 | 49 | 1012.0 |
| 20260502035008 | 27 | 101 | 6.4 | 12.9 | 0.00 | 0.00 | 0.00 | 49 | 1012.0 |
| 20260502034008 | 27 | 101 | 6.4 | 12.9 | 0.00 | 0.00 | 0.00 | 49 | 1012.0 |
| 20260502033008 | 27 | 101 | 6.4 | 12.9 | 0.00 | 0.00 | 0.00 | 49 | 1012.0 |
| 20260502032007 | 27 | 101 | 6.4 | 12.9 | 0.00 | 0.00 | 0.00 | 49 | 1011.0 |
| 20260502031007 | 27 | 101 | 6.4 | 12.9 | 0.00 | 0.00 | 0.00 | 49 | 1011.0 |
| 20260502030007 | 27 | 101 | 6.4 | 12.9 | 0.00 | 0.00 | 0.00 | 49 | 1011.0 |
| 20260502025006 | 27 | 101 | 6.4 | 12.9 | 0.00 | 0.00 | 0.00 | 49 | 1011.0 |
| 20260502024006 | 27 | 101 | 6.4 | 12.9 | 0.00 | 0.00 | 0.00 | 49 | 1011.0 |
| 20260502023006 | 27 | 101 | 6.4 | 12.9 | 0.00 | 0.00 | 0.00 | 49 | 1010.0 |
| 20260502022005 | 27 | 101 | 6.4 | 12.9 | 0.00 | 0.00 | 0.00 | 49 | 1010.0 |
| 20260502021005 | 27 | 101 | 6.4 | 12.9 | 0.00 | 0.00 | 0.00 | 49 | 1010.0 |
| 20260502020005 | 27 | 101 | 6.4 | 12.9 | 0.00 | 0.00 | 0.00 | 49 | 1010.0 |
| 20260502015005 | 27 | 101 | 6.4 | 12.9 | 0.00 | 0.00 | 0.00 | 49 | 1010.0 |
| 20260502014004 | 27 | 101 | 6.4 | 12.9 | 0.00 | 0.00 | 0.00 | 49 | 1010.0 |
| 20260502013004 | 27 | 101 | 6.4 | 12.9 | 0.00 | 0.00 | 0.00 | 49 | 1010.0 |
| 20260502012004 | 27 | 101 | 6.4 | 12.9 | 0.00 | 0.00 | 0.00 | 49 | 1009.0 |
| 20260502011003 | 27 | 101 | 6.4 | 12.9 | 0.00 | 0.00 | 0.00 | 49 | 1009.0 |
| 20260502010003 | 27 | 101 | 6.4 | 12.9 | 0.00 | 0.00 | 0.00 | 49 | 1009.0 |
| 20260502005003 | 27 | 101 | 6.4 | 12.9 | 0.00 | 0.00 | 0.00 | 49 | 1009.0 |
| 20260502004002 | 27 | 101 | 6.4 | 12.9 | 0.00 | 0.00 | 0.00 | 49 | 1009.0 |
| 20260502003002 | 31 | 117 | 8.0 | 6.4 | 0.00 | 0.00 | 0.00 | 30 | 1008.0 |
| 20260502002002 | 31 | 117 | 8.0 | 6.4 | 0.00 | 0.00 | 0.00 | 30 | 1008.0 |
| 20260502001002 | 31 | 117 | 8.0 | 6.4 | 0.00 | 0.00 | 0.00 | 30 | 1008.0 |
| 20260502000001 | 31 | 117 | 8.0 | 6.4 | 0.00 | 0.00 | 0.00 | 30 | 1008.0 |
| 20260501235001 | 31 | 117 | 8.0 | 6.4 | 0.00 | 0.00 | 0.00 | 30 | 1008.0 |
| 20260501234001 | 31 | 117 | 8.0 | 6.4 | 0.00 | 0.00 | 0.00 | 30 | 1008.0 |
| 20260501233001 | 31 | 117 | 8.0 | 6.4 | 0.00 | 0.00 | 0.00 | 30 | 1008.0 |
| 20260501232000 | 31 | 117 | 8.0 | 6.4 | 0.00 | 0.00 | 0.00 | 30 | 1007.0 |
| 20260501231000 | 31 | 117 | 8.0 | 6.4 | 0.00 | 0.00 | 0.00 | 30 | 1007.0 |
| 20260501230000 | 31 | 117 | 8.0 | 6.4 | 0.00 | 0.00 | 0.00 | 30 | 1007.0 |
| 20260501224959 | 31 | 117 | 8.0 | 6.4 | 0.00 | 0.00 | 0.00 | 30 | 1007.0 |
| 20260501223959 | 31 | 117 | 8.0 | 6.4 | 0.00 | 0.00 | 0.00 | 30 | 1007.0 |
| 20260501222959 | 31 | 117 | 8.0 | 6.4 | 0.00 | 0.00 | 0.00 | 30 | 1007.0 |
| 20260501221959 | 31 | 117 | 8.0 | 6.4 | 0.00 | 0.00 | 0.00 | 30 | 1007.0 |
| 20260501220958 | 31 | 117 | 8.0 | 6.4 | 0.00 | 0.00 | 0.00 | 30 | 1007.0 |
| 20260501215958 | 31 | 117 | 8.0 | 6.4 | 0.00 | 0.00 | 0.00 | 30 | 1006.0 |
| 20260501214958 | 31 | 117 | 8.0 | 6.4 | 0.00 | 0.00 | 0.00 | 30 | 1006.0 |